,,Stat6,,Stat2,,Stat8,,Stat9,,Stat10,,Wind1,,Wind1,
time,status,PA1M_AVG,status,PR1M_SUM,status,RH1M_AVG,status,SR1M_AVG,status,TA1M_AVG,status,W1dAve1m,status,W1sAve1m,
2007-07-05, 07:00:01,VALID,917.577,VALID,0,VALID,100,VALID,20.343,VALID,18.7557,VALID,154,VALID,1.09097,
2007-07-05, 07:01:00,VALID,917.574,VALID,0,VALID,100,VALID,21.0053,VALID,18.7069,VALID,147,VALID,1.21094,
2007-07-05, 07:02:00,VALID,917.596,VALID,0,VALID,100,VALID,21.8713,VALID,18.6447,VALID,140,VALID,1.32241,
2007-07-05, 07:03:00,VALID,917.604,VALID,0,VALID,100,VALID,23.1279,VALID,18.6123,VALID,136,VALID,1.23238,
2007-07-05, 07:04:00,VALID,917.623,VALID,0,VALID,100,VALID,24.0618,VALID,18.5931,VALID,129,VALID,1.16654,
2007-07-05, 07:05:00,VALID,917.637,VALID,0,VALID,100,VALID,25.1826,VALID,18.5639,VALID,128,VALID,1.09654,
2007-07-05, 07:06:00,VALID,917.646,VALID,0,VALID,100,VALID,26.0656,VALID,18.5639,VALID,127,VALID,1.31882,
2007-07-05, 07:07:00,VALID,917.658,VALID,0,VALID,100,VALID,26.9825,VALID,18.5996,VALID,127,VALID,1.34872,
2007-07-05, 07:08:00,VALID,917.667,VALID,0,VALID,100,VALID,27.9504,VALID,18.5996,VALID,121,VALID,1.22693,
2007-07-05, 07:09:00,VALID,917.683,VALID,0,VALID,100,VALID,28.9523,VALID,18.6223,VALID,124,VALID,1.17839,
2007-07-05, 07:10:00,VALID,917.703,VALID,0,VALID,100,VALID,29.9881,VALID,18.6452,VALID,127,VALID,1.20226,
2007-07-05, 07:11:00,VALID,917.711,VALID,0,VALID,100,VALID,31.041,VALID,18.6742,VALID,130,VALID,1.4343,
2007-07-05, 07:12:00,VALID,917.739,VALID,0,VALID,100,VALID,32.2126,VALID,18.6976,VALID,132,VALID,1.33965,
2007-07-05, 07:13:00,VALID,917.752,VALID,0,VALID,100,VALID,33.4013,VALID,18.7273,VALID,126,VALID,1.24325,
2007-07-05, 07:14:00,VALID,917.767,VALID,0,VALID,100,VALID,34.522,VALID,18.733,VALID,119,VALID,0.937674,
2007-07-05, 07:15:00,VALID,917.761,VALID,0,VALID,100,VALID,35.6597,VALID,18.7444,VALID,116,VALID,1.23317,
2007-07-05, 07:16:00,VALID,917.766,VALID,0,VALID,100,VALID,36.6616,VALID,18.7409,VALID,110,VALID,1.37649,
2007-07-05, 07:17:00,VALID,917.77,VALID,0,VALID,100,VALID,37.5786,VALID,18.7571,VALID,105,VALID,1.42169,
2007-07-05, 07:18:00,VALID,917.779,VALID,0,VALID,100,VALID,38.3597,VALID,18.7601,VALID,106,VALID,1.37686,
2007-07-05, 07:19:00,VALID,917.815,VALID,0,VALID,100,VALID,38.988,VALID,18.7603,VALID,106,VALID,1.1899,
2007-07-05, 07:20:00,VALID,917.817,VALID,0,VALID,100,VALID,39.4635,VALID,18.7798,VALID,106,VALID,1.20087,
2007-07-05, 07:21:00,VALID,917.832,VALID,0,VALID,100,VALID,39.9899,VALID,18.8057,VALID,118,VALID,1.28392,
2007-07-05, 07:22:00,VALID,917.851,VALID,0,VALID,100,VALID,40.5163,VALID,18.8254,VALID,107,VALID,1.22768,
2007-07-05, 07:23:00,VALID,917.9,VALID,0,VALID,100,VALID,41.2634,VALID,18.8287,VALID,90,VALID,1.00337,
2007-07-05, 07:24:00,VALID,917.914,VALID,0,VALID,100,VALID,42.2143,VALID,18.8414,VALID,112,VALID,1.02401,
2007-07-05, 07:25:00,VALID,917.925,VALID,0,VALID,100,VALID,43.3181,VALID,18.8514,VALID,130,VALID,1.36433,
2007-07-05, 07:26:00,VALID,917.939,VALID,0,VALID,100,VALID,44.6935,VALID,18.8706,VALID,138,VALID,1.13881,
2007-07-05, 07:27:00,VALID,917.96,VALID,0,VALID,100,VALID,46.3407,VALID,18.8933,VALID,144,VALID,0.830171,
2007-07-05, 07:28:00,VALID,917.977,VALID,0,VALID,100,VALID,48.0897,VALID,18.913,VALID,150,VALID,0.687322,
2007-07-05, 07:29:00,VALID,917.998,VALID,0,VALID,100,VALID,50.1274,VALID,18.9327,VALID,164,VALID,1.04851,
2007-07-05, 07:30:00,VALID,918.009,VALID,0,VALID,100,VALID,52.25,VALID,18.9517,VALID,164,VALID,0.922676,
2007-07-05, 07:31:00,VALID,918.025,VALID,0,VALID,100,VALID,54.4915,VALID,18.9746,VALID,152,VALID,1.13151,
2007-07-05, 07:32:00,VALID,918.036,VALID,0,VALID,100,VALID,56.9707,VALID,19.0006,VALID,155,VALID,1.1029,
2007-07-05, 07:33:00,VALID,918.029,VALID,0,VALID,100,VALID,59.5688,VALID,19.03,VALID,153,VALID,0.875,
2007-07-05, 07:34:00,VALID,918.022,VALID,0,VALID,100,VALID,62.2687,VALID,19.049,VALID,134,VALID,0.77255,
2007-07-05, 07:35:00,VALID,918.028,VALID,0,VALID,100,VALID,64.9856,VALID,19.0812,VALID,139,VALID,0.757086,
2007-07-05, 07:36:00,VALID,918.042,VALID,0,VALID,100,VALID,67.7196,VALID,19.1204,VALID,141,VALID,0.706143,
2007-07-05, 07:37:00,VALID,918.085,VALID,0,VALID,100,VALID,70.4535,VALID,19.153,VALID,136,VALID,0.635617,
2007-07-05, 07:38:00,VALID,918.124,VALID,0,VALID,100,VALID,73.1704,VALID,19.205,VALID,165,VALID,0.215872,
2007-07-05, 07:39:00,VALID,918.169,VALID,0,VALID,100,VALID,75.9383,VALID,19.2569,VALID,163,VALID,0.387835,
2007-07-05, 07:40:00,VALID,918.21,VALID,0,VALID,100,VALID,78.7911,VALID,19.3215,VALID,165,VALID,0.41276,
2007-07-05, 07:41:00,VALID,918.241,VALID,0,VALID,100,VALID,81.6269,VALID,19.3637,VALID,167,VALID,0.835556,
2007-07-05, 07:42:00,VALID,918.264,VALID,0,VALID,100,VALID,84.174,VALID,19.4123,VALID,169,VALID,0.908249,
2007-07-05, 07:43:00,VALID,918.277,VALID,0,VALID,100,VALID,86.5173,VALID,19.471,VALID,169,VALID,1.07794,
2007-07-05, 07:44:00,VALID,918.289,VALID,0,VALID,100,VALID,89.0305,VALID,19.5196,VALID,174,VALID,0.927326,
2007-07-05, 07:45:00,VALID,918.286,VALID,0,VALID,100,VALID,91.7474,VALID,19.565,VALID,166,VALID,0.718378,
2007-07-05, 07:46:00,VALID,918.286,VALID,0,VALID,99.9265,VALID,94.7361,VALID,19.6002,VALID,161,VALID,0.927326,
2007-07-05, 07:47:00,VALID,918.282,VALID,0,VALID,99.7981,VALID,97.9624,VALID,19.6427,VALID,155,VALID,1.03981,
2007-07-05, 07:48:00,VALID,918.292,VALID,0,VALID,99.6251,VALID,101.749,VALID,19.6721,VALID,155,VALID,1.24528,
2007-07-05, 07:49:00,VALID,918.29,VALID,0,VALID,99.4789,VALID,106.232,VALID,19.7115,VALID,149,VALID,1.11059,
2007-07-05, 07:50:00,VALID,918.295,VALID,0,VALID,99.3784,VALID,110.851,VALID,19.7243,VALID,144,VALID,0.909157,
2007-07-05, 07:51:00,VALID,918.302,VALID,0,VALID,99.3225,VALID,116.217,VALID,19.7435,VALID,149,VALID,0.93532,
2007-07-05, 07:52:00,VALID,918.306,VALID,0,VALID,99.3072,VALID,121.956,VALID,19.7794,VALID,146,VALID,1.07734,
2007-07-05, 07:53:00,VALID,918.332,VALID,0,VALID,99.2233,VALID,126.015,VALID,19.8081,VALID,152,VALID,0.899239,
2007-07-05, 07:54:00,VALID,918.337,VALID,0,VALID,99.1991,VALID,129.632,VALID,19.8538,VALID,143,VALID,0.543341,
2007-07-05, 07:55:00,VALID,918.362,VALID,0,VALID,99.2411,VALID,134.573,VALID,19.9127,VALID,151,VALID,0.466602,
2007-07-05, 07:56:00,VALID,918.366,VALID,0,VALID,99.0822,VALID,137.222,VALID,19.9639,VALID,130,VALID,0.753452,
2007-07-05, 07:57:00,VALID,918.372,VALID,0,VALID,99.0224,VALID,138.665,VALID,20.0228,VALID,115,VALID,0.877604,
2007-07-05, 07:58:00,VALID,918.435,VALID,0,VALID,98.9931,VALID,141.824,VALID,20.0649,VALID,121,VALID,0.950149,
2007-07-05, 07:59:00,VALID,918.469,VALID,0,VALID,98.9245,VALID,147.462,VALID,20.1069,VALID,121,VALID,0.98601,
2007-07-05, 08:00:00,VALID,918.513,VALID,0,VALID,98.8622,VALID,154.356,VALID,20.1563,VALID,124,VALID,0.995739,
2007-07-05, 08:01:00,VALID,918.555,VALID,0,VALID,99.0427,VALID,162.439,VALID,20.2182,VALID,125,VALID,0.438672,
2007-07-05, 08:02:00,VALID,918.594,VALID,0,VALID,99.0097,VALID,164.51,VALID,20.2859,VALID,129,VALID,0.509588,
2007-07-05, 08:03:00,VALID,918.61,VALID,0,VALID,98.7617,VALID,166.989,VALID,20.361,VALID,141,VALID,0.663086,
2007-07-05, 08:04:00,VALID,918.623,VALID,0,VALID,98.4476,VALID,169.044,VALID,20.4124,VALID,134,VALID,0.818026,
2007-07-05, 08:05:00,VALID,918.634,VALID,0,VALID,98.2416,VALID,172.899,VALID,20.4479,VALID,126,VALID,0.465278,
2007-07-05, 08:06:00,VALID,918.632,VALID,0,VALID,98.3586,VALID,174.987,VALID,20.5255,VALID,118,VALID,0.339177,
2007-07-05, 08:07:00,VALID,918.622,VALID,0,VALID,97.8589,VALID,175.242,VALID,20.5847,VALID,137,VALID,1.04528,
2007-07-05, 08:08:00,VALID,918.628,VALID,0,VALID,97.8818,VALID,180.982,VALID,20.6198,VALID,134,VALID,0.414418,
2007-07-05, 08:09:00,VALID,918.609,VALID,0,VALID,97.8907,VALID,189.795,VALID,20.7112,VALID,125,VALID,0.64226,
2007-07-05, 08:10:00,VALID,918.61,VALID,0,VALID,97.4774,VALID,191.781,VALID,20.7469,VALID,120,VALID,0.88299,
2007-07-05, 08:11:00,VALID,918.601,VALID,0,VALID,97.2854,VALID,191.119,VALID,20.7697,VALID,104,VALID,0.691501,
2007-07-05, 08:12:00,VALID,918.607,VALID,0,VALID,97.2599,VALID,191.629,VALID,20.7991,VALID,92,VALID,0.736328,
2007-07-05, 08:13:00,VALID,918.623,VALID,0,VALID,97.2472,VALID,190.915,VALID,20.8351,VALID,103,VALID,0.518118,
2007-07-05, 08:14:00,VALID,918.635,VALID,0,VALID,97.1938,VALID,192.919,VALID,20.8962,VALID,126,VALID,0.513317,
2007-07-05, 08:15:00,VALID,918.629,VALID,0,VALID,96.7958,VALID,196.18,VALID,20.9304,VALID,97,VALID,0.625545,
2007-07-05, 08:16:00,VALID,918.658,VALID,0,VALID,96.3864,VALID,199.881,VALID,20.979,VALID,149,VALID,0.766768,
2007-07-05, 08:17:00,VALID,918.654,VALID,0,VALID,95.9922,VALID,203.974,VALID,21.0118,VALID,152,VALID,0.81141,
2007-07-05, 08:18:00,VALID,918.669,VALID,0,VALID,95.9375,VALID,209.493,VALID,21.0542,VALID,139,VALID,0.93968,
2007-07-05, 08:19:00,VALID,918.685,VALID,0,VALID,96.0964,VALID,213.075,VALID,21.0896,VALID,127,VALID,0.416853,
2007-07-05, 08:20:00,VALID,918.691,VALID,0,VALID,96.2923,VALID,220.479,VALID,21.1546,VALID,150,VALID,0.475472,
2007-07-05, 08:21:00,VALID,918.685,VALID,0,VALID,96.1524,VALID,224.487,VALID,21.2457,VALID,114,VALID,0.460379,
2007-07-05, 08:22:00,VALID,918.689,VALID,0,VALID,96.0608,VALID,216.913,VALID,21.3396,VALID,132,VALID,0.625545,
2007-07-05, 08:23:00,VALID,918.708,VALID,0,VALID,95.5967,VALID,215.368,VALID,21.4375,VALID,145,VALID,0.660156,
2007-07-05, 08:24:00,VALID,918.744,VALID,0,VALID,94.7409,VALID,217.626,VALID,21.4437,VALID,93,VALID,0.720796,
2007-07-05, 08:25:00,VALID,918.784,VALID,0,VALID,94.5298,VALID,222.687,VALID,21.47,VALID,101,VALID,0.77782,
2007-07-05, 08:26:00,VALID,918.812,VALID,0,VALID,94.4586,VALID,231.873,VALID,21.4894,VALID,114,VALID,0.31059,
2007-07-05, 08:27:00,VALID,918.834,VALID,0,VALID,94.9889,VALID,237.783,VALID,21.5736,VALID,112,VALID,0.311955,
2007-07-05, 08:28:00,VALID,918.833,VALID,0,VALID,94.6455,VALID,242.469,VALID,21.6742,VALID,55,VALID,0.923971,
2007-07-05, 08:29:00,VALID,918.816,VALID,0,VALID,93.3523,VALID,253.965,VALID,21.6745,VALID,89,VALID,1.22443,
2007-07-05, 08:30:00,VALID,918.843,VALID,0,VALID,92.7165,VALID,259.263,VALID,21.5865,VALID,121,VALID,1.2286,
2007-07-05, 08:31:00,VALID,918.849,VALID,0,VALID,93.8253,VALID,262.116,VALID,21.5736,VALID,128,VALID,0.773947,
2007-07-05, 08:32:00,VALID,918.84,VALID,0,VALID,94.3556,VALID,265.258,VALID,21.6582,VALID,114,VALID,0.282012,
2007-07-05, 08:33:00,VALID,918.843,VALID,0,VALID,93.6995,VALID,261.878,VALID,21.6912,VALID,115,VALID,0.397928,
2007-07-05, 08:34:00,VALID,918.854,VALID,0,VALID,93.2747,VALID,266.565,VALID,21.7459,VALID,172,VALID,0.768787,
2007-07-05, 08:35:00,VALID,918.855,VALID,0,VALID,92.2371,VALID,265.003,VALID,21.7134,VALID,113,VALID,1.17281,
2007-07-05, 08:36:00,VALID,918.868,VALID,0,VALID,92.5614,VALID,254.814,VALID,21.6718,VALID,112,VALID,0.942336,
2007-07-05, 08:37:00,VALID,918.889,VALID,0,VALID,93.2951,VALID,255.069,VALID,21.685,VALID,144,VALID,1.15115,
2007-07-05, 08:38:00,VALID,918.903,VALID,0,VALID,93.2302,VALID,264.901,VALID,21.7519,VALID,172,VALID,1.30759,
2007-07-05, 08:39:00,VALID,918.923,VALID,0,VALID,93.0319,VALID,269.995,VALID,21.7714,VALID,156,VALID,1.21875,
2007-07-05, 08:40:00,VALID,918.945,VALID,0,VALID,92.8309,VALID,275.174,VALID,21.7738,VALID,160,VALID,1.14163,
2007-07-05, 08:41:00,VALID,918.952,VALID,0,VALID,92.7318,VALID,301.274,VALID,21.7933,VALID,163,VALID,1.04261,
2007-07-05, 08:42:00,VALID,918.938,VALID,0,VALID,92.6758,VALID,314.604,VALID,21.8425,VALID,158,VALID,1.20126,
2007-07-05, 08:43:00,VALID,918.933,VALID,0,VALID,92.274,VALID,334.437,VALID,21.8652,VALID,144,VALID,1.09878,
2007-07-05, 08:44:00,VALID,918.942,VALID,0,VALID,91.689,VALID,340.415,VALID,21.8455,VALID,157,VALID,1.02813,
2007-07-05, 08:45:00,VALID,918.936,VALID,0,VALID,91.8391,VALID,336.068,VALID,21.9242,VALID,136,VALID,0.797433,
2007-07-05, 08:46:00,VALID,918.931,VALID,0,VALID,91.1054,VALID,343.947,VALID,21.9781,VALID,151,VALID,0.911914,
2007-07-05, 08:47:00,VALID,918.933,VALID,0,VALID,91.4462,VALID,362.592,VALID,22.0769,VALID,130,VALID,0.793146,
2007-07-05, 08:48:00,VALID,918.923,VALID,0,VALID,91.8327,VALID,353.847,VALID,22.1634,VALID,119,VALID,0.793605,
2007-07-05, 08:49:00,VALID,918.928,VALID,0,VALID,91.6382,VALID,346.528,VALID,22.2219,VALID,93,VALID,1.03832,
2007-07-05, 08:50:00,VALID,918.923,VALID,0,VALID,91.1575,VALID,332.349,VALID,22.1997,VALID,87,VALID,0.916349,
2007-07-05, 08:51:00,VALID,918.919,VALID,0,VALID,91.8187,VALID,313.11,VALID,22.2614,VALID,66,VALID,1.13047,
2007-07-05, 08:52:00,VALID,918.901,VALID,0,VALID,90.7036,VALID,297.317,VALID,22.3585,VALID,44,VALID,1.53639,
2007-07-05, 08:53:00,VALID,918.893,VALID,0,VALID,89.6062,VALID,287.825,VALID,22.4781,VALID,60,VALID,1.0419,
2007-07-05, 08:54:00,VALID,918.896,VALID,0,VALID,88.2697,VALID,296.265,VALID,22.5474,VALID,88,VALID,0.652961,
2007-07-05, 08:55:00,VALID,918.889,VALID,0,VALID,88.6334,VALID,302.497,VALID,22.6546,VALID,134,VALID,0.384146,
2007-07-05, 08:56:00,VALID,918.91,VALID,0,VALID,87.653,VALID,305.163,VALID,22.7875,VALID,128,VALID,0.761364,
2007-07-05, 08:57:00,VALID,918.941,VALID,0,VALID,87.7382,VALID,287.061,VALID,22.83,VALID,94,VALID,0.475632,
2007-07-05, 08:58:00,VALID,918.972,VALID,0,VALID,87.3109,VALID,270.046,VALID,22.9504,VALID,27,VALID,0.616097,
2007-07-05, 08:59:00,VALID,919.001,VALID,0,VALID,86.1181,VALID,266.548,VALID,23.1022,VALID,27,VALID,0.207485,
2007-07-05, 09:00:00,VALID,919.036,VALID,0,VALID,84.5795,VALID,264.629,VALID,23.2702,VALID,95,VALID,0.516369,
2007-07-05, 09:01:00,VALID,919.041,VALID,0,VALID,84.343,VALID,268.161,VALID,23.3024,VALID,113,VALID,0.503289,
2007-07-05, 09:02:00,VALID,919.026,VALID,0,VALID,84.2222,VALID,278.231,VALID,23.2475,VALID,120,VALID,0.629076,
2007-07-05, 09:03:00,VALID,919.011,VALID,0,VALID,84.0696,VALID,286.399,VALID,23.2085,VALID,141,VALID,0.379092,
2007-07-05, 09:04:00,VALID,918.995,VALID,0,VALID,84.1904,VALID,297.827,VALID,23.2936,VALID,125,VALID,0.213481,
2007-07-05, 09:05:00,VALID,918.969,VALID,0,VALID,84.6838,VALID,321.702,VALID,23.4202,VALID,75,VALID,0.400977,
2007-07-05, 09:06:00,VALID,918.948,VALID,0,VALID,84.5566,VALID,324.572,VALID,23.5466,VALID,30,VALID,1.00421,
2007-07-05, 09:07:00,VALID,918.961,VALID,0,VALID,82.2359,VALID,317.694,VALID,23.4619,VALID,23,VALID,0.858422,
2007-07-05, 09:08:00,VALID,918.982,VALID,0,VALID,82.7344,VALID,313.67,VALID,23.4882,VALID,22,VALID,0.557049,
2007-07-05, 09:09:00,VALID,919,VALID,0,VALID,83.3639,VALID,313.211,VALID,23.5824,VALID,27,VALID,0.3837,
2007-07-05, 09:10:00,VALID,919.002,VALID,0,VALID,83.6398,VALID,332.739,VALID,23.774,VALID,357,VALID,0.434451,
2007-07-05, 09:11:00,VALID,918.999,VALID,0,VALID,83.7631,VALID,343.794,VALID,23.878,VALID,4,VALID,0.478379,
2007-07-05, 09:12:00,VALID,918.991,VALID,0,VALID,83.8471,VALID,343.301,VALID,23.9566,VALID,15,VALID,0.309524,
2007-07-05, 09:13:00,VALID,918.967,VALID,0,VALID,82.166,VALID,346.392,VALID,24.0437,VALID,25,VALID,0.300967,
2007-07-05, 09:14:00,VALID,918.94,VALID,0,VALID,81.5048,VALID,350.264,VALID,24.1087,VALID,34,VALID,0.263021,
2007-07-05, 09:15:00,VALID,918.94,VALID,0,VALID,80.7037,VALID,348.209,VALID,24.1934,VALID,314,VALID,0.69752,
2007-07-05, 09:16:00,VALID,918.945,VALID,0,VALID,80.855,VALID,323.621,VALID,24.0667,VALID,294,VALID,0.67242,
2007-07-05, 09:17:00,VALID,918.942,VALID,0,VALID,82.4597,VALID,308.27,VALID,23.9949,VALID,322,VALID,0.207485,
2007-07-05, 09:18:00,VALID,918.943,VALID,0,VALID,83.1286,VALID,315.809,VALID,24.0898,VALID,9,VALID,0.574505,
2007-07-05, 09:19:00,VALID,918.948,VALID,0,VALID,79.8224,VALID,325.777,VALID,24.0242,VALID,356,VALID,0.964844,
2007-07-05, 09:20:00,VALID,918.932,VALID,0,VALID,81.4488,VALID,328.681,VALID,23.9427,VALID,30,VALID,1.26925,
2007-07-05, 09:21:00,VALID,918.926,VALID,0,VALID,81.7209,VALID,334.505,VALID,23.9982,VALID,23,VALID,1.02227,
2007-07-05, 09:22:00,VALID,918.919,VALID,0,VALID,79.6304,VALID,352.879,VALID,24.0511,VALID,31,VALID,1.26674,
2007-07-05, 09:23:00,VALID,918.91,VALID,0,VALID,80.5714,VALID,364.171,VALID,24.0121,VALID,7,VALID,1.32955,
2007-07-05, 09:24:00,VALID,918.907,VALID,0,VALID,82.4216,VALID,370.827,VALID,24.1421,VALID,354,VALID,0.38548,
2007-07-05, 09:25:00,VALID,918.881,VALID,0,VALID,82.8069,VALID,367.584,VALID,24.3149,VALID,47,VALID,0.748402,
2007-07-05, 09:26:00,VALID,918.869,VALID,0,VALID,82.0516,VALID,358.652,VALID,24.4865,VALID,26,VALID,0.677734,
2007-07-05, 09:27:00,VALID,918.872,VALID,0,VALID,81.9842,VALID,353.948,VALID,24.6321,VALID,21,VALID,0.974805,
2007-07-05, 09:28:00,VALID,918.862,VALID,0,VALID,78.0498,VALID,390.661,VALID,24.7136,VALID,351,VALID,0.197516,
2007-07-05, 09:29:00,VALID,918.856,VALID,0,VALID,78.6551,VALID,452.149,VALID,24.8641,VALID,266,VALID,0.395089,
2007-07-05, 09:30:00,VALID,918.833,VALID,0,VALID,79.5325,VALID,452.183,VALID,24.9704,VALID,22,VALID,0.669969,
2007-07-05, 09:31:00,VALID,918.823,VALID,0,VALID,78.9565,VALID,448.752,VALID,25.088,VALID,25,VALID,0.587054,
2007-07-05, 09:32:00,VALID,918.825,VALID,0,VALID,76.9143,VALID,477.824,VALID,25.1046,VALID,27,VALID,1.33738,
2007-07-05, 09:33:00,VALID,918.828,VALID,0,VALID,76.0381,VALID,554.883,VALID,24.9486,VALID,18,VALID,1.04464,
2007-07-05, 09:34:00,VALID,918.827,VALID,0,VALID,76.2581,VALID,592.886,VALID,25.0301,VALID,307,VALID,0.683239,
2007-07-05, 09:35:00,VALID,918.837,VALID,0,VALID,76.852,VALID,606.199,VALID,25.0948,VALID,354,VALID,0.482887,
2007-07-05, 09:36:00,VALID,918.857,VALID,0,VALID,77.0605,VALID,621.38,VALID,25.244,VALID,331,VALID,0.489258,
2007-07-05, 09:37:00,VALID,918.861,VALID,0,VALID,77.9735,VALID,627.085,VALID,25.4263,VALID,31,VALID,0.469993,
2007-07-05, 09:38:00,VALID,918.857,VALID,0,VALID,76.6422,VALID,626.1,VALID,25.7254,VALID,26,VALID,0.821403,
2007-07-05, 09:39:00,VALID,918.858,VALID,0,VALID,75.073,VALID,690.746,VALID,26.054,VALID,296,VALID,0.428779,
2007-07-05, 09:40:00,VALID,918.853,VALID,0,VALID,75.0107,VALID,737.002,VALID,26.2979,VALID,298,VALID,0.33689,
2007-07-05, 09:41:00,VALID,918.845,VALID,0,VALID,73.163,VALID,729.581,VALID,26.5027,VALID,5,VALID,0.41353,
2007-07-05, 09:42:00,VALID,918.858,VALID,0,VALID,72.6162,VALID,729.615,VALID,26.7531,VALID,345,VALID,0.603237,
2007-07-05, 09:43:00,VALID,918.862,VALID,0,VALID,70.6465,VALID,722.28,VALID,26.8799,VALID,326,VALID,0.651414,
2007-07-05, 09:44:00,VALID,918.881,VALID,0,VALID,70.5499,VALID,674.003,VALID,26.8601,VALID,324,VALID,0.610305,
2007-07-05, 09:45:00,VALID,918.891,VALID,0,VALID,70.0921,VALID,604.823,VALID,26.9102,VALID,31,VALID,0.961301,
2007-07-05, 09:46:00,VALID,918.916,VALID,0,VALID,70.2447,VALID,581.593,VALID,26.8578,VALID,23,VALID,1.35511,
2007-07-05, 09:47:00,VALID,918.93,VALID,0,VALID,70.4367,VALID,544.354,VALID,26.9434,VALID,26,VALID,1.0651,
2007-07-05, 09:48:00,VALID,918.94,VALID,0,VALID,70.7088,VALID,485.991,VALID,27.024,VALID,33,VALID,0.635671,
2007-07-05, 09:49:00,VALID,918.95,VALID,0,VALID,70.2638,VALID,495.45,VALID,27.1187,VALID,43,VALID,1.02009,
2007-07-05, 09:50:00,VALID,918.948,VALID,0,VALID,66.9754,VALID,441.502,VALID,26.8975,VALID,332,VALID,0.707508,
2007-07-05, 09:51:00,VALID,918.924,VALID,0,VALID,68.1745,VALID,431.126,VALID,26.465,VALID,23,VALID,0.520349,
2007-07-05, 09:52:00,VALID,918.877,VALID,0,VALID,70.3172,VALID,605.808,VALID,26.2576,VALID,20,VALID,1.35447,
2007-07-05, 09:53:00,VALID,918.864,VALID,0,VALID,70.8347,VALID,733.996,VALID,26.2836,VALID,306,VALID,0.489211,
2007-07-05, 09:54:00,VALID,918.817,VALID,0,VALID,69.9878,VALID,767.534,VALID,26.4263,VALID,42,VALID,1.08648,
2007-07-05, 09:55:00,VALID,918.794,VALID,0,VALID,70.6694,VALID,763.271,VALID,26.3892,VALID,13,VALID,0.889509,
2007-07-05, 09:56:00,VALID,918.782,VALID,0,VALID,70.3998,VALID,755.868,VALID,26.3275,VALID,354,VALID,1.00558,
2007-07-05, 09:57:00,VALID,918.775,VALID,0,VALID,72.1954,VALID,739.668,VALID,26.2335,VALID,1,VALID,0.926491,
2007-07-05, 09:58:00,VALID,918.77,VALID,0,VALID,71.5443,VALID,712.855,VALID,26.4127,VALID,43,VALID,0.630269,
2007-07-05, 09:59:00,VALID,918.764,VALID,0,VALID,70.4952,VALID,753.372,VALID,26.7378,VALID,5,VALID,0.666969,
2007-07-05, 10:00:00,VALID,918.751,VALID,0,VALID,67.9914,VALID,675.175,VALID,26.8523,VALID,250,VALID,1.10449,
2007-07-05, 10:01:00,VALID,918.758,VALID,0,VALID,69.4398,VALID,408.338,VALID,26.705,VALID,317,VALID,0.582849,
2007-07-05, 10:02:00,VALID,918.737,VALID,0,VALID,69.1321,VALID,317.032,VALID,26.5499,VALID,29,VALID,0.783668,
2007-07-05, 10:03:00,VALID,918.741,VALID,0,VALID,68.7251,VALID,325.573,VALID,26.3314,VALID,267,VALID,0.741386,
2007-07-05, 10:04:00,VALID,918.73,VALID,0,VALID,70.1875,VALID,658.228,VALID,26.1955,VALID,341,VALID,1.05124,
2007-07-05, 10:05:00,VALID,918.717,VALID,0,VALID,70.5283,VALID,750.417,VALID,25.9386,VALID,27,VALID,1.55287,
2007-07-05, 10:06:00,VALID,918.713,VALID,0,VALID,70.5359,VALID,762.609,VALID,25.9812,VALID,35,VALID,1.91624,
2007-07-05, 10:07:00,VALID,918.692,VALID,0,VALID,71.6295,VALID,780.541,VALID,26.2309,VALID,38,VALID,1.61754,
2007-07-05, 10:08:00,VALID,918.706,VALID,0,VALID,70.995,VALID,782.443,VALID,26.6247,VALID,35,VALID,1.22359,
2007-07-05, 10:09:00,VALID,918.7,VALID,0,VALID,68.7201,VALID,768.094,VALID,26.9824,VALID,2,VALID,1.32576,
2007-07-05, 10:10:00,VALID,918.69,VALID,0,VALID,67.395,VALID,792.784,VALID,27.0738,VALID,34,VALID,2.32937,
2007-07-05, 10:11:00,VALID,918.702,VALID,0,VALID,67.1127,VALID,760.809,VALID,27.1327,VALID,11,VALID,1.85901,
2007-07-05, 10:12:00,VALID,918.713,VALID,0,VALID,66.6194,VALID,715.521,VALID,27.0933,VALID,31,VALID,2.51696,
2007-07-05, 10:13:00,VALID,918.724,VALID,0,VALID,65.5474,VALID,604.721,VALID,26.8592,VALID,37,VALID,2.90153,
2007-07-05, 10:14:00,VALID,918.762,VALID,0,VALID,66.1743,VALID,584.684,VALID,26.6908,VALID,38,VALID,1.79667,
2007-07-05, 10:15:00,VALID,918.789,VALID,0,VALID,66.8635,VALID,640.381,VALID,26.7158,VALID,59,VALID,0.806286,
2007-07-05, 10:16:00,VALID,918.811,VALID,0,VALID,67.6735,VALID,681.169,VALID,26.7587,VALID,354,VALID,0.734184,
2007-07-05, 10:17:00,VALID,918.827,VALID,0,VALID,67.1852,VALID,713.348,VALID,26.9353,VALID,17,VALID,0.34561,
2007-07-05, 10:18:00,VALID,918.839,VALID,0,VALID,67.0441,VALID,705.604,VALID,27.1389,VALID,339,VALID,0.383176,
2007-07-05, 10:19:00,VALID,918.84,VALID,0,VALID,65.8157,VALID,668.382,VALID,27.2498,VALID,267,VALID,0.798399,
2007-07-05, 10:20:00,VALID,918.825,VALID,0,VALID,66.4706,VALID,638.496,VALID,27.1295,VALID,294,VALID,0.515067,
2007-07-05, 10:21:00,VALID,918.811,VALID,0,VALID,67.1674,VALID,628.902,VALID,27.0651,VALID,22,VALID,0.803622,
2007-07-05, 10:22:00,VALID,918.788,VALID,0,VALID,66.2964,VALID,618.798,VALID,27.1601,VALID,335,VALID,0.713145,
2007-07-05, 10:23:00,VALID,918.768,VALID,0,VALID,66.3638,VALID,672.033,VALID,27.1919,VALID,352,VALID,0.477539,
2007-07-05, 10:24:00,VALID,918.737,VALID,0,VALID,65.6161,VALID,724.198,VALID,27.2085,VALID,9,VALID,0.603795,
2007-07-05, 10:25:00,VALID,918.727,VALID,0,VALID,65.3261,VALID,757.056,VALID,27.1695,VALID,331,VALID,0.696837,
2007-07-05, 10:26:00,VALID,918.704,VALID,0,VALID,65.2854,VALID,773.018,VALID,27.1337,VALID,332,VALID,0.425,
2007-07-05, 10:27:00,VALID,918.708,VALID,0,VALID,65.6008,VALID,800.324,VALID,27.2801,VALID,251,VALID,0.568216,
2007-07-05, 10:28:00,VALID,918.701,VALID,0,VALID,65.2028,VALID,784.701,VALID,27.3126,VALID,260,VALID,0.586868,
2007-07-05, 10:29:00,VALID,918.711,VALID,0,VALID,66.3243,VALID,768.858,VALID,27.3539,VALID,343,VALID,0.551448,
2007-07-05, 10:30:00,VALID,918.711,VALID,0,VALID,65.8513,VALID,722.161,VALID,27.5874,VALID,332,VALID,0.546494,
2007-07-05, 10:31:00,VALID,918.692,VALID,0,VALID,65.3083,VALID,641.892,VALID,27.711,VALID,6,VALID,0.700036,
2007-07-05, 10:32:00,VALID,918.671,VALID,0,VALID,64.6865,VALID,558.941,VALID,27.7435,VALID,31,VALID,0.29082,
2007-07-05, 10:33:00,VALID,918.648,VALID,0,VALID,63.6235,VALID,535.796,VALID,27.8805,VALID,252,VALID,0.942308,
2007-07-05, 10:34:00,VALID,918.631,VALID,0,VALID,64.3979,VALID,524.945,VALID,27.5971,VALID,263,VALID,0.887767,
2007-07-05, 10:35:00,VALID,918.599,VALID,0,VALID,65.2371,VALID,545.628,VALID,27.2121,VALID,245,VALID,0.733445,
2007-07-05, 10:36:00,VALID,918.586,VALID,0,VALID,66.6206,VALID,584.022,VALID,26.9848,VALID,216,VALID,0.593395,
2007-07-05, 10:37:00,VALID,918.586,VALID,0,VALID,67.4713,VALID,629.785,VALID,26.9002,VALID,233,VALID,0.571701,